sat.trackr.live / text

‹ back to catalog

STARLINK-37233

NORAD 68562 · 2026-070W

PAYLOAD ACTIVE UNKNOWN

§ Identity

Operator
Country
US
Launch date
2026-04-02
Launch site
AFETR
Launch vehicle
Mass (kg)
RCS (m²)

Purposes: comms

External: N2YO · Heavens-Above · Gunter

§ Orbital elements

Epoch: 2026-05-25T00:51:50.088096Z

Period
93.85 min
Inclination
53.1597°
Eccentricity
0.0001153
Mean motion
15.34395624 rev/d
Perigee alt
461.9 km
Apogee alt
463.5 km
Semi-major
6,840.9 km
B*
3.3394e-4
RAAN
7.2352°
Arg perigee
90.9806°
Mean anomaly
269.1328°
Rev number
825

§ Raw data

STARLINK-372331 68562U 26070W   26145.03599639  .00010921  00000+0  33394-3 0  99912 68562  53.1597   7.2352 0001153  90.9806 269.1328 15.34395624  8258

JSON: /api/v1/satellites/68562 · /tle

For live sub-satellite position, see the globe view (requires WebGL).

§ Visibility from observer

Set your observer location to see the next 7 days of passes ≥ 10°. The values pass through the URL so the page stays shareable.

No JS? Fill the form by hand. The geolocation button needs JavaScript.